Tracking 21082 objects as of 6-Aug-2020
HD Live streaming from Space Station
objects crossing your sky now

SL-8 R/B

Track SL-8 R/B now!
10-day predictions


NORAD ID: 6993
Int'l Code: 1973-104J
Perigee: 1,482.3 km
Apogee: 1,628.0 km
Inclination: 74.0 °
Period: 117.0 minutes
Semi major axis: 7926 km
RCS: 6.4131 m2 (large)
Launch date: December 19, 1973
Source: Commonwealth of Independent States (former USSR) (CIS)
Launch site: PLESETSK MISSILE AND SPACE COMPLEX (PKMTR)

Note: This is a ROCKET BODY
aabbcc
Your satellite tracking list
Your tracking list is empty




NASA's NSSDC Master Catalog

Two Line Element Set (TLE):
1  6993U 73104J   20218.51335115 +.00000025 +00000-0 +33009-3 0  9994
2  6993 074.0333 041.7310 0091915 068.1670 026.2548 12.30303440094075
Source of the keplerian elements: AFSPC